Hulett, WY

10:42 AM MDT on September 17, 2019 (GMT -0600)
Hulett

Weather History for KW43 - May, 2019

Change the Weather History Date:

Sunday, May 19, 2019

  Actual Average (KEFC) Record (KEFC)
Temperature  
Mean Temperature 36 °F -  
Max Temperature 41 °F 71 °F 94 °F (1992)
Min Temperature 32 °F 44 °F 32 °F (1960)
Degree Days  
Heating Degree Days 28    
Moisture  
Dew Point 32 °F    
Average Humidity 92    
Maximum Humidity 100    
Minimum Humidity 70    
Precipitation  
Precipitation 0.00 in - - ()
Sea Level Pressure  
Sea Level Pressure 30.04 in    
Wind  
Wind Speed 6 mph (ENE)    
Max Wind Speed 10 mph    
Max Gust Speed -    
Visibility 9 miles    
Events Snow    
Averages and records for this station are not official NWS values.
T = Trace of Precipitation, MM = Missing Value Source: NWS Daily Summary

Daily Weather History Graph

Daily Weather History Graph

Search for Another Location

Airport or City:

Astronomy

May. 19, 2019 Rise Set
Actual Time 5:26 AM MDT 8:23 PM MDT
Civil Twilight 4:51 AM MDT 8:58 PM MDT
Nautical Twilight 4:07 AM MDT 9:42 PM MDT
Astronomical Twilight 3:15 AM MDT 10:35 PM MDT
Moon 9:26 PM MDT (5/19) 6:14 AM MDT (5/19)
Length of Visible Light 16h 06m
Length of Day
14h 57m
Full, 99% of the Moon is Illuminated
May 19
Full
May 26
Last Quarter
Jun 3
New
Jun 10
First Quarter
Jun 17
Full

Hourly Weather History & Observations

Time (MDT) Temp. Windchill Dew Point Humidity Pressure Visibility Wind Dir Wind Speed Gust Speed Precip Events Conditions
12:15 AM 32.0 °F - 32.0 °F 100% 30.02 in 2.5 mi North - - N/A Snow Light Snow
12:35 AM 32.0 °F - 32.0 °F 100% 30.02 in 3.0 mi North - - N/A   Overcast
12:55 AM 32.0 °F - 32.0 °F 100% 30.01 in 2.5 mi North - - N/A Snow Light Snow
1:15 AM 32.0 °F - 32.0 °F 100% 30.01 in 2.5 mi North - - N/A Snow Light Snow
1:35 AM 32.0 °F - 32.0 °F 100% 30.02 in 3.0 mi North - - N/A Snow Light Snow
1:55 AM 32.0 °F - 32.0 °F 100% 30.02 in 4.0 mi North - - N/A Snow Light Snow
2:15 AM 32.0 °F - 32.0 °F 100% 30.03 in 3.0 mi North - - N/A Snow Light Snow
2:35 AM 32.0 °F - 32.0 °F 100% 30.03 in 4.0 mi North - - N/A Snow Light Snow
2:55 AM 32.0 °F - 32.0 °F 100% 30.03 in 5.0 mi North - - N/A Snow Light Snow
3:15 AM 32.0 °F - 32.0 °F 100% 30.03 in 3.0 mi North - - N/A   Overcast
3:35 AM 32.0 °F - 32.0 °F 100% 30.03 in 5.0 mi North - - N/A   Overcast
3:55 AM 32.0 °F - 32.0 °F 100% 30.03 in 7.0 mi North - - N/A   Overcast
4:15 AM 32.0 °F - 32.0 °F 100% 30.03 in 10.0 mi North - - N/A   Overcast
4:35 AM 32.0 °F - 32.0 °F 100% 30.03 in 7.0 mi North - - N/A   Overcast
4:55 AM 32.0 °F - 32.0 °F 100% 30.03 in 10.0 mi North - - N/A   Overcast
5:15 AM 32.0 °F - 32.0 °F 100% 30.04 in 10.0 mi North - - N/A   Overcast
5:35 AM 32.0 °F - 32.0 °F 100% 30.04 in 10.0 mi North - - N/A   Overcast
5:55 AM 32.0 °F - 32.0 °F 100% 30.04 in 10.0 mi North - - N/A   Overcast
6:15 AM 32.0 °F - 32.0 °F 100% 30.04 in 10.0 mi North - - N/A   Overcast
6:35 AM 32.0 °F - 32.0 °F 100% 30.05 in 4.0 mi North - - N/A   Overcast
6:55 AM 32.0 °F - 32.0 °F 100% 30.05 in 4.0 mi North - - N/A   Overcast
7:15 AM 32.0 °F - 32.0 °F 100% 30.05 in 10.0 mi North - - N/A   Overcast
7:35 AM 32.0 °F - 32.0 °F 100% 30.06 in 10.0 mi North - - N/A   Overcast
7:55 AM 32.0 °F - 32.0 °F 100% 30.06 in 7.0 mi North - - N/A   Overcast
8:15 AM 32.0 °F - 32.0 °F 100% 30.06 in 7.0 mi North - - N/A   Overcast
8:35 AM 32.0 °F - 32.0 °F 100% 30.06 in 10.0 mi North - - N/A   Overcast
8:55 AM 32.0 °F - 32.0 °F 100% 30.07 in 10.0 mi North - - N/A   Overcast
9:15 AM 32.0 °F - 32.0 °F 100% 30.07 in 10.0 mi North - - N/A   Overcast
9:35 AM 32.0 °F - 32.0 °F 100% 30.06 in 10.0 mi North - - N/A   Overcast
9:55 AM 32.0 °F - 32.0 °F 100% 30.06 in 10.0 mi North - - N/A   Overcast
10:15 AM 32.0 °F - 32.0 °F 100% 30.06 in 10.0 mi North - - N/A   Overcast
10:35 AM 33.8 °F - 32.0 °F 93% 30.05 in 10.0 mi North - - N/A   Overcast
10:55 AM 33.8 °F 28.6 °F 32.0 °F 93% 30.06 in 10.0 mi NNE 5.8 mph - N/A   Overcast
11:15 AM 33.8 °F 30.8 °F 32.0 °F 93% 30.06 in 10.0 mi NE 3.5 mph - N/A   Overcast
11:35 AM 33.8 °F 27.7 °F 32.0 °F 93% 30.05 in 10.0 mi NNE 6.9 mph - N/A   Overcast
11:55 AM 33.8 °F 28.6 °F 32.0 °F 93% 30.05 in 10.0 mi ENE 5.8 mph - N/A   Overcast
12:15 PM 33.8 °F 28.6 °F 32.0 °F 93% 30.05 in 10.0 mi NE 5.8 mph - N/A   Overcast
12:35 PM 33.8 °F - 32.0 °F 93% 30.05 in 10.0 mi North - - N/A   Overcast
12:55 PM 35.6 °F 30.7 °F 32.0 °F 87% 30.05 in 10.0 mi ENE 5.8 mph - N/A   Overcast
1:15 PM 35.6 °F 29.9 °F 32.0 °F 87% 30.06 in 10.0 mi ENE 6.9 mph - N/A   Overcast
1:35 PM 35.6 °F 30.7 °F 32.0 °F 87% 30.06 in 10.0 mi East 5.8 mph - N/A   Overcast
1:55 PM 35.6 °F 32.8 °F 32.0 °F 87% 30.06 in 10.0 mi ENE 3.5 mph - N/A   Overcast
2:15 PM 35.6 °F 29.9 °F 32.0 °F 87% 30.07 in 10.0 mi ESE 6.9 mph - N/A   Overcast
2:35 PM 35.6 °F 30.7 °F 32.0 °F 87% 30.06 in 10.0 mi ENE 5.8 mph - N/A   Overcast
2:55 PM 35.6 °F 30.7 °F 32.0 °F 87% 30.06 in 10.0 mi East 5.8 mph - N/A   Overcast
3:15 PM 35.6 °F 29.2 °F 32.0 °F 87% 30.05 in 10.0 mi East 8.1 mph - N/A   Overcast
3:35 PM 35.6 °F 29.9 °F 32.0 °F 87% 30.05 in 10.0 mi East 6.9 mph - N/A   Overcast
3:55 PM 35.6 °F 29.2 °F 32.0 °F 87% 30.05 in 10.0 mi East 8.1 mph - N/A   Overcast
4:15 PM 35.6 °F 29.9 °F 32.0 °F 87% 30.04 in 10.0 mi ENE 6.9 mph - N/A   Overcast
4:35 PM 37.4 °F 32.8 °F 33.8 °F 87% 30.03 in 10.0 mi ENE 5.8 mph - N/A   Mostly Cloudy
4:55 PM 37.4 °F 31.4 °F 32.0 °F 81% 30.03 in 10.0 mi East 8.1 mph - N/A   Mostly Cloudy
5:15 PM 41.0 °F 37.1 °F 32.0 °F 70% 30.03 in 10.0 mi ENE 5.8 mph - N/A   Mostly Cloudy
5:35 PM 41.0 °F 36.4 °F 32.0 °F 70% 30.03 in 10.0 mi East 6.9 mph - N/A   Overcast
5:55 PM 37.4 °F 31.4 °F 32.0 °F 81% 30.03 in 10.0 mi East 8.1 mph - N/A   Overcast
6:15 PM 37.4 °F 30.3 °F 32.0 °F 81% 30.03 in 10.0 mi East 10.4 mph - N/A   Overcast
6:35 PM 37.4 °F 32.1 °F 32.0 °F 81% 30.03 in 10.0 mi East 6.9 mph - N/A   Overcast
6:55 PM 37.4 °F 32.1 °F 32.0 °F 81% 30.03 in 10.0 mi East 6.9 mph - N/A   Overcast
7:15 PM 37.4 °F 32.8 °F 32.0 °F 81% 30.03 in 10.0 mi East 5.8 mph - N/A   Overcast
7:35 PM 37.4 °F 32.1 °F 32.0 °F 81% 30.04 in 10.0 mi East 6.9 mph - N/A   Overcast
7:55 PM 37.4 °F 34.9 °F 32.0 °F 81% 30.05 in 10.0 mi East 3.5 mph - N/A   Overcast
8:15 PM 35.6 °F 30.7 °F 32.0 °F 87% 30.05 in 10.0 mi East 5.8 mph - N/A   Overcast
8:35 PM 35.6 °F 30.7 °F 32.0 °F 87% 30.04 in 10.0 mi East 5.8 mph - N/A   Overcast
8:55 PM 35.6 °F 30.7 °F 32.0 °F 87% 30.04 in 10.0 mi East 5.8 mph - N/A   Overcast
9:15 PM 35.6 °F 30.7 °F 32.0 °F 87% 30.04 in 10.0 mi East 5.8 mph - N/A   Overcast
9:35 PM 35.6 °F - 32.0 °F 87% 30.04 in 10.0 mi Calm Calm - N/A   Overcast
9:55 PM 35.6 °F 30.7 °F 32.0 °F 87% 30.04 in 10.0 mi East 5.8 mph - N/A   Overcast
10:15 PM 35.6 °F 31.7 °F 32.0 °F 87% 30.05 in 10.0 mi East 4.6 mph - N/A   Overcast
10:35 PM 35.6 °F 30.7 °F 32.0 °F 87% 30.05 in 10.0 mi East 5.8 mph - N/A   Overcast
10:55 PM 35.6 °F 31.7 °F 32.0 °F 87% 30.04 in 10.0 mi East 4.6 mph - N/A   Overcast
11:15 PM 35.6 °F 31.7 °F 32.0 °F 87% 30.05 in 10.0 mi East 4.6 mph - N/A   Overcast
11:35 PM 35.6 °F 31.7 °F 32.0 °F 87% 30.04 in 10.0 mi East 4.6 mph - N/A   Overcast
11:55 PM 35.6 °F 30.7 °F 32.0 °F 87% 30.04 in 10.0 mi East 5.8 mph - N/A   Overcast